Date String (YYYY-MM-DD hh:mm:ss) UTC,Instrument flags,absolute air pressure of the measurement (hPa),sample flow rate (lpm),inlet stack bypass flow (lpm),air temperature of the measurement (°C),ambient temperature measured by the external sensor (°C),aerosol sample conditioner tube jacket temperature (°C),OPC LED temperature (°C),internal box temperature (°C),relative humidity of the measurement (%),span deviation,mass concentration of particles derived from Lorenz-Mie calculation of OPC scattering (μg/m³),mass concentration of particles derived from Lorenz-Mie calculation of OPC scattering (μg/m³),mass concentration of particles derived from Lorenz-Mie calculation of OPC scattering (μg/m³)
DateTimeUTC,F1_M11,P_M11,Q1_M11,Q2_M11,T1_M11,T2_M11,T3_M11,T4_M11,T5_M11,U1_M11,ZSPAN_M11,X0_M11,X2_M11,X1_M11
2024-04-30 19:00:00,SystemResetWarning,0821.7,4.99,000.00,024.5,023.7,000.0,032.8,026.2,014.0,0000.0,0011.79,0004.04,0002.13
2024-04-30 19:01:00,SystemResetWarning,0821.6,4.99,000.00,024.5,023.7,000.0,032.8,026.2,013.8,0000.0,0011.58,0004.06,0002.13
2024-04-30 19:02:00,SystemResetWarning,0821.7,5.01,000.00,024.5,023.7,000.0,032.8,026.2,013.2,0000.0,0011.57,0004.03,0002.10
2024-04-30 19:03:00,SystemResetWarning,0821.7,5.01,000.00,024.5,023.8,000.0,032.8,026.3,013.7,0000.0,0011.87,0004.01,0002.09
2024-04-30 19:04:00,SystemResetWarning,0821.6,5.00,000.00,024.5,023.8,000.0,032.8,026.3,013.9,0000.0,0011.97,0004.03,0002.10
2024-04-30 19:05:00,SystemResetWarning,0821.5,5.00,000.00,024.5,023.8,000.0,032.8,026.3,013.3,0000.0,0011.95,0004.04,0002.11
2024-04-30 19:06:00,SystemResetWarning,0821.6,5.01,000.00,024.5,023.8,000.0,032.8,026.3,013.0,0000.0,0012.40,0004.19,0002.12
2024-04-30 19:07:00,SystemResetWarning,0821.7,5.00,000.00,024.5,023.8,000.0,032.8,026.3,013.0,0000.0,0011.76,0004.22,0002.13
2024-04-30 19:08:00,SystemResetWarning,0821.8,5.00,000.00,024.5,023.8,000.0,032.9,026.3,013.3,0000.0,0011.82,0004.24,0002.15
2024-04-30 19:09:00,SystemResetWarning,0821.7,5.00,000.00,024.5,023.8,000.0,032.9,026.3,013.3,0000.0,0011.76,0004.24,0002.16
2024-04-30 19:10:00,SystemResetWarning,0821.6,5.00,000.00,024.5,023.8,000.0,032.9,026.3,012.6,0000.0,0011.32,0004.22,0002.15
2024-04-30 19:11:00,SystemResetWarning,0821.8,5.00,000.00,024.5,023.8,000.0,032.9,026.3,012.9,0000.0,0011.07,0004.25,0002.16
2024-04-30 19:12:00,SystemResetWarning,0821.8,5.00,000.00,024.5,023.8,000.0,032.9,026.3,012.8,0000.0,0011.31,0004.27,0002.17
2024-04-30 19:13:00,SystemResetWarning,0821.8,5.00,000.00,024.6,023.8,000.0,032.9,026.3,013.1,0000.0,0011.50,0004.29,0002.16
2024-04-30 19:14:00,SystemResetWarning,0821.6,5.00,000.00,024.6,023.8,000.0,032.9,026.3,013.3,0000.0,0011.66,0004.37,0002.18
2024-04-30 19:15:00,SystemResetWarning,0821.7,5.02,000.00,024.6,023.8,000.0,032.9,026.4,012.5,0000.0,0012.03,0004.37,0002.18
2024-04-30 19:16:00,SystemResetWarning,0821.7,4.99,000.00,024.6,023.9,000.0,032.9,026.4,012.8,0000.0,0012.01,0004.40,0002.20
2024-04-30 19:17:00,SystemResetWarning,0821.7,4.99,000.00,024.6,023.9,000.0,032.9,026.4,012.4,0000.0,0011.77,0004.34,0002.20
2024-04-30 19:18:00,SystemResetWarning,0821.6,5.00,000.00,024.6,023.9,000.0,032.9,026.4,013.1,0000.0,0011.71,0004.31,0002.18
2024-04-30 19:19:00,SystemResetWarning,0821.7,5.01,000.00,024.6,023.9,000.0,032.9,026.4,012.6,0000.0,0011.71,0004.35,0002.18
2024-04-30 19:20:00,SystemResetWarning,0821.8,5.01,000.00,024.6,023.9,000.0,032.9,026.4,013.1,0000.0,0011.04,0004.38,0002.18
2024-04-30 19:21:00,SystemResetWarning,0821.7,4.99,000.00,024.6,023.9,000.0,032.9,026.4,013.0,0000.0,0011.17,0004.40,0002.19
2024-04-30 19:22:00,SystemResetWarning,0821.7,4.99,000.00,024.6,023.9,000.0,033.0,026.4,012.0,0000.0,0011.15,0004.38,0002.19
2024-04-30 19:23:00,SystemResetWarning,0821.9,5.01,000.00,024.6,023.9,000.0,033.0,026.4,012.2,0000.0,0010.84,0004.30,0002.17
2024-04-30 19:24:00,SystemResetWarning,0821.7,5.01,000.00,024.7,023.9,000.0,033.0,026.5,012.7,0000.0,0010.65,0004.32,0002.20
2024-04-30 19:25:00,SystemResetWarning,0821.7,5.00,000.00,024.7,024.0,000.0,033.0,026.5,012.6,0000.0,0010.62,0004.27,0002.21
2024-04-30 19:26:00,SystemResetWarning,0821.6,5.01,000.00,024.7,024.0,000.0,033.0,026.5,011.2,0000.0,0010.53,0004.26,0002.24
2024-04-30 19:27:00,SystemResetWarning,0821.5,5.00,000.00,024.7,024.0,000.0,033.0,026.5,011.4,0000.0,0010.85,0004.25,0002.25
2024-04-30 19:28:00,SystemResetWarning,0821.7,4.98,000.00,024.7,024.0,000.0,033.0,026.5,011.4,0000.0,0010.85,0004.24,0002.26
2024-04-30 19:29:00,SystemResetWarning,0821.4,4.99,000.00,024.7,024.0,000.0,033.0,026.5,011.7,0000.0,0011.52,0004.29,0002.29
2024-04-30 19:30:00,SystemResetWarning,0821.7,5.00,000.00,024.7,024.0,000.0,033.0,026.4,011.5,0000.0,0011.91,0004.29,0002.30
2024-04-30 19:31:00,SystemResetWarning,0821.7,5.01,000.00,024.7,024.0,000.0,033.0,026.5,011.9,0000.0,0011.92,0004.30,0002.31
2024-04-30 19:32:00,SystemResetWarning,0821.7,5.01,000.00,024.7,024.0,000.0,033.0,026.5,012.1,0000.0,0011.91,0004.29,0002.32
2024-04-30 19:33:00,SystemResetWarning,0821.7,4.98,000.00,024.7,024.0,000.0,033.0,026.5,011.5,0000.0,0012.02,0004.34,0002.32
2024-04-30 19:34:00,SystemResetWarning,0821.6,5.00,000.00,024.8,024.0,000.0,033.1,026.5,011.4,0000.0,0012.39,0004.45,0002.35
2024-04-30 19:35:00,SystemResetWarning,0821.5,5.01,000.00,024.8,024.0,000.0,033.1,026.6,011.3,0000.0,0012.43,0004.45,0002.34
2024-04-30 19:36:00,SystemResetWarning,0821.9,5.01,000.00,024.8,024.1,000.0,033.1,026.6,011.4,0000.0,0012.26,0004.44,0002.34
2024-04-30 19:37:00,SystemResetWarning,0821.7,5.00,000.00,024.8,024.1,000.0,033.1,026.6,011.7,0000.0,0012.57,0004.43,0002.34
2024-04-30 19:38:00,SystemResetWarning,0821.6,4.99,000.00,024.8,024.1,000.0,033.1,026.6,011.2,0000.0,0012.27,0004.44,0002.34
2024-04-30 19:39:00,SystemResetWarning,0821.6,4.98,000.00,024.8,024.1,000.0,033.1,026.6,011.5,0000.0,0012.24,0004.43,0002.35
2024-04-30 19:40:00,SystemResetWarning,0821.5,5.00,000.00,024.8,024.1,000.0,033.1,026.6,010.9,0000.0,0012.37,0004.42,0002.34
2024-04-30 19:41:00,SystemResetWarning,0821.8,5.00,000.00,024.8,024.1,000.0,033.1,026.6,011.1,0000.0,0012.68,0004.41,0002.37
2024-04-30 19:42:00,SystemResetWarning,0821.6,5.01,000.00,024.8,024.1,000.0,033.1,026.6,011.0,0000.0,0012.65,0004.38,0002.39
2024-04-30 19:43:00,SystemResetWarning,0821.7,5.01,000.00,024.9,024.1,000.0,033.2,026.6,010.7,0000.0,0013.45,0004.43,0002.40
2024-04-30 19:44:00,SystemResetWarning,0821.8,5.00,000.00,024.9,024.1,000.0,033.2,026.6,011.1,0000.0,0013.50,0004.42,0002.42
2024-04-30 19:45:00,SystemResetWarning,0821.9,4.99,000.00,024.9,024.2,000.0,033.2,026.6,011.9,0000.0,0013.47,0004.43,0002.43
2024-04-30 19:46:00,SystemResetWarning,0821.8,4.99,000.00,024.9,024.2,000.0,033.2,026.6,011.7,0000.0,0013.37,0004.43,0002.43
2024-04-30 19:47:00,SystemResetWarning,0821.7,5.00,000.00,024.9,024.2,000.0,033.2,026.7,011.1,0000.0,0013.75,0004.44,0002.43
2024-04-30 19:48:00,SystemResetWarning,0821.9,5.00,000.00,024.9,024.2,000.0,033.2,026.7,011.0,0000.0,0014.05,0004.46,0002.42
2024-04-30 19:49:00,SystemResetWarning,0821.7,5.00,000.00,024.9,024.2,000.0,033.2,026.7,010.9,0000.0,0014.64,0004.47,0002.41
2024-04-30 19:50:00,SystemResetWarning,0821.9,5.00,000.00,025.0,024.3,000.0,033.2,026.7,011.0,0000.0,0014.88,0004.50,0002.40
2024-04-30 19:51:00,SystemResetWarning,0821.9,5.00,000.00,025.0,024.3,000.0,033.2,026.7,011.0,0000.0,0014.63,0004.47,0002.42
2024-04-30 19:52:00,SystemResetWarning,0822.0,4.99,000.00,025.0,024.3,000.0,033.3,026.7,011.7,0000.0,0013.54,0004.50,0002.41
2024-04-30 19:53:00,SystemResetWarning,0821.8,4.99,000.00,025.0,024.3,000.0,033.3,026.8,011.8,0000.0,0013.71,0004.57,0002.40
2024-04-30 19:54:00,SystemResetWarning,0821.8,5.00,000.00,025.0,024.3,000.0,033.3,026.8,010.8,0000.0,0013.79,0004.62,0002.41
2024-04-30 19:55:00,SystemResetWarning,0821.9,5.01,000.00,025.0,024.3,000.0,033.3,026.8,011.0,0000.0,0013.67,0004.62,0002.40
2024-04-30 19:56:00,SystemResetWarning,0822.0,5.00,000.00,025.0,024.3,000.0,033.3,026.8,011.6,0000.0,0013.74,0004.62,0002.40
2024-04-30 19:57:00,SystemResetWarning,0822.1,5.00,000.00,025.1,024.4,000.0,033.3,026.8,011.3,0000.0,0013.76,0004.60,0002.41
2024-04-30 19:58:00,SystemResetWarning,0821.9,4.99,000.00,025.1,024.4,000.0,033.4,026.9,010.9,0000.0,0013.57,0004.60,0002.41
2024-04-30 19:59:00,SystemResetWarning,0822.1,5.01,000.00,025.1,024.4,000.0,033.4,026.9,011.3,0000.0,0012.91,0004.62,0002.43
